Temp
17 17 17 16 16 16 16 16 16 15 15 14 14 14 14 14 14 14 13 14 14 14 14 13 13 13 13 13 13 12 12 12 9 11 11 12 12 12 12 12 11 11 10
17 16 16 16 16 16 16 15 15 15 14 14 14 14 14 14 14 13 13 14 14 14 14 14 14 13 13 13 13 12 12 12 11 10 11 11 11 11 11 11 10 10 10
17 16 16 16 16 15 15 15 15 14 14 14 14 14 14 14 14 13 14 14 14 14 14 14 13 13 13 12 12 12 12 11 11 11 10 11 11 10 10 10 9 9 9
17 17 16 16 15 15 15 15 14 14 14 14 14 14 14 14 14 14 14 14 14 14 13 13 13 13 12 12 12 12 11 11 11 10 10 10 10 9 9 8 8 8 8
17 17 16 16 15 15 15 15 14 14 14 15 15 14 14 14 14 14 14 14 14 14 14 13 13 12 12 12 12 11 11 11 10 10 9 9 9 8 8 8 7 7 7
17 16 16 16 15 15 15 15 15 15 15 15 15 15 15 15 14 14 14 14 14 14 13 13 13 12 12 12 11 11 10 10 9 9 9 8 8 8 8 7 6 6 4
16 17 16 16 15 15 15 15 15 15 15 15 15 15 15 15 14 14 14 14 14 13 13 13 13 12 11 10 10 10 10 9 9 9 8 8 8 8 7 7 6 6 6
16 16 16 15 15 15 15 15 15 15 15 15 15 15 14 14 14 14 14 14 13 13 13 13 12 10 10 10 10 9 8 8 7 8 8 8 8 7 7 7 6 6 6
16 15 16 16 15 15 14 15 15 15 15 15 15 14 14 14 14 14 14 13 13 12 12 12 10 10 10 9 9 8 7 7 7 7 7 7 7 8 8 7 7 6 5
15 15 16 16 15 14 15 15 15 15 15 14 14 14 14 14 14 14 14 13 13 12 11 10 10 10 10 9 8 8 7 7 7 7 8 8 8 8 8 7 7 6 5
15 15 16 16 15 15 15 15 15 15 15 14 14 14 14 14 14 13 13 13 12 12 11 10 10 10 10 9 8 8 7 7 7 7 7 7 7 7 7 7 7 7 6
15 15 15 15 15 15 15 15 15 15 14 14 14 14 14 14 13 13 13 12 12 11 11 10 10 9 9 9 9 8 8 8 7 7 7 6 7 7 7 7 7 7 8
15 14 15 15 14 16 16 15 14 14 14 14 14 14 14 13 12 12 12 12 11 10 10 10 10 10 9 9 9 8 7 7 7 7 6 6 6 7 7 7 7 8 8
14 13 14 13 15 15 15 15 14 14 14 14 14 14 13 12 11 11 11 11 10 10 9 10 10 9 9 9 8 8 7 7 6 6 5 5 6 7 7 7 7 7 7
13 13 13 13 14 13 14 14 14 14 14 14 14 13 12 11 12 12 10 10 9 9 10 10 10 9 9 8 8 7 7 6 6 6 6 6 6 6 6 7 7 7 7
13 12 12 13 12 13 13 13 13 14 14 14 14 14 12 12 12 10 10 10 10 10 10 10 9 9 9 8 8 7 7 6 6 6 6 6 6 6 6 6 6 7 7
12 12 12 12 12 12 13 13 11 11 12 13 13 12 12 12 12 11 11 11 11 10 10 11 10 10 9 8 8 7 6 7 7 7 7 7 6 6 6 5 6 6 6
12 12 12 13 12 13 14 13 13 11 10 10 11 11 12 12 11 11 11 11 11 11 11 10 10 9 9 9 8 8 7 7 7 7 7 6 6 6 5 5 5 5 6
12 12 12 13 14 15 14 13 13 12 11 11 11 11 12 11 11 11 11 10 10 10 10 10 10 10 9 9 8 8 8 7 7 7 6 6 5 5 4 4 4 5 5
13 13 14 15 15 16 15 14 14 13 12 12 11 12 12 11 11 12 11 11 10 10 10 10 10 9 8 8 8 7 7 6 5 5 5 4 4 3 3 4 4 4 4
12 13 15 15 17 16 15 15 15 14 13 12 12 12 12 12 11 11 10 10 10 9 9 9 9 8 7 7 7 6 5 5 4 4 4 3 2 2 2 2 2 3 4
13 15 14 17 17 17 15 16 15 15 13 12 12 12 12 11 11 10 10 9 9 9 9 9 8 7 7 7 6 5 4 4 4 3 2 1 0 0 1 1 2 2 3
13 14 16 17 17 16 16 16 16 15 13 13 12 12 11 11 10 10 9 9 9 9 8 8 8 7 7 6 5 4 4 3 2 1 0 -0 -1 -1 -1 0 1 2 3
14 17 17 17 16 16 16 16 15 14 13 13 12 11 11 10 9 9 8 8 8 8 8 8 7 6 6 5 5 4 3 3 2 1 -0 -0 -0 -0 1 1 1 2 3
17 17 16 15 15 16 15 15 14 13 12 12 11 10 10 9 9 8 8 7 7 7 7 7 6 6 5 5 4 3 3 2 2 1 0 1 1 1 2 2 2 2 2
17 16 16 16 15 15 14 14 13 12 11 11 10 9 9 8 7 7 7 7 7 6 6 6 5 5 4 4 3 3 2 2 1 1 0 1 1 1 2 3 2 2 2
Height
808 811 813 814 819 824 824 822 823 825 827 829 828 829 831 833 834 835 836 836 836 836 837 837 836 834 833 832 831 830 829 827 823 819 818 814 810 806 803 803 802 802 802
802 809 811 813 815 823 824 822 824 825 828 829 827 828 830 831 833 834 834 835 835 835 835 834 834 833 831 830 827 826 825 824 821 817 814 811 808 803 801 801 801 800 799
799 803 808 812 813 820 821 821 823 825 828 828 827 827 829 830 832 833 833 834 834 835 834 833 831 830 828 826 824 821 820 819 818 814 811 809 806 803 801 800 799 797 796
795 798 803 807 811 817 819 819 821 825 828 827 826 826 827 829 830 831 832 832 831 832 831 830 829 827 825 823 820 818 816 815 814 811 808 806 804 802 800 798 795 794 792
791 793 799 802 808 812 815 817 820 823 825 825 824 825 825 827 828 829 829 829 829 829 827 826 824 823 821 817 816 815 814 813 810 807 804 802 801 799 798 796 794 791 789
790 795 797 800 804 808 811 815 818 821 822 822 822 822 822 824 826 826 826 828 827 825 823 822 820 818 816 813 814 813 813 810 807 804 801 799 798 797 795 794 791 789 787
790 793 794 797 803 807 808 812 815 817 818 819 820 820 820 822 823 824 825 824 823 822 819 817 815 813 813 813 813 812 810 807 804 800 799 798 796 794 793 790 789 787 785
784 788 792 795 801 806 809 811 814 814 815 816 817 818 819 820 821 822 822 821 820 819 816 812 810 810 812 812 811 809 806 804 801 799 798 796 794 792 791 789 787 785 782
780 786 790 792 793 799 806 808 810 811 811 813 814 816 817 818 819 819 819 819 818 817 813 810 809 810 811 810 808 806 804 802 799 796 794 793 791 790 788 786 784 782 778
779 781 785 789 792 794 797 805 808 807 808 810 812 813 814 815 816 816 816 816 815 815 813 811 810 809 807 806 805 804 802 799 796 793 791 790 788 787 785 783 780 778 776
774 778 779 782 787 792 793 801 804 805 805 807 808 810 812 812 813 814 814 814 813 812 812 810 810 809 806 804 803 802 801 798 795 793 790 788 786 784 782 780 778 775 772
769 774 775 778 784 790 791 797 800 801 803 805 807 809 810 810 811 812 811 812 812 811 810 810 809 807 805 802 801 801 799 796 794 792 790 787 784 782 779 777 774 772 769
763 768 769 775 777 782 788 792 796 797 799 803 805 806 808 809 810 811 812 811 810 809 808 806 806 804 803 802 800 799 797 794 793 790 787 785 782 780 777 774 770 768 765
761 765 768 773 774 781 786 790 792 793 797 801 804 805 807 808 809 810 809 808 808 806 805 804 803 802 801 800 798 797 795 792 790 789 786 783 780 777 774 771 767 763 760
762 763 765 768 778 780 785 790 790 793 797 799 801 802 803 807 808 808 807 807 806 804 803 802 800 800 799 798 797 795 793 791 789 787 784 781 778 775 772 768 764 761 758
753 760 767 766 780 782 784 788 792 795 797 800 801 802 804 806 806 806 806 806 805 803 801 801 798 797 797 796 794 793 791 789 787 785 782 780 777 773 770 766 763 759 756
750 755 761 764 774 782 784 788 792 796 798 801 803 803 805 805 806 806 805 805 803 802 799 798 798 796 795 793 791 790 789 787 784 782 780 778 775 771 768 764 761 757 753
745 754 759 765 771 780 783 786 790 793 798 802 804 804 805 806 806 805 804 802 801 801 799 798 797 795 793 790 788 787 787 785 782 780 777 775 772 769 766 762 758 755 751
742 751 757 764 771 777 782 784 788 792 797 800 802 804 805 805 805 804 803 803 802 801 801 798 796 794 792 790 788 786 785 782 780 777 775 773 770 767 763 759 755 751 748
738 748 755 762 767 772 777 781 786 791 795 797 801 802 802 804 804 802 802 802 803 801 799 797 796 794 792 791 789 786 784 781 779 777 774 770 766 763 760 756 752 748 744
735 746 755 760 762 767 773 778 784 789 793 797 800 801 801 803 804 804 803 803 801 800 799 797 796 794 792 789 787 784 783 780 777 773 769 765 762 758 755 752 748 744 741
736 747 753 756 761 764 771 777 783 787 791 795 798 800 802 802 803 803 803 803 802 800 799 797 795 793 791 788 786 784 782 778 774 769 765 761 757 754 750 747 743 740 738
741 748 752 756 759 766 773 778 784 786 791 794 798 800 801 802 803 804 805 804 802 800 799 797 795 793 790 788 786 783 780 776 772 767 761 756 752 748 746 743 740 737 735
742 747 751 756 762 768 773 779 783 788 792 796 797 799 801 802 804 806 805 805 802 801 799 797 795 792 790 788 785 782 778 774 769 763 758 753 748 745 743 740 737 734 731
741 746 751 757 764 769 775 780 785 790 794 797 798 800 803 804 805 806 805 804 803 802 800 797 795 793 790 787 784 780 775 770 765 760 754 750 746 743 740 737 734 731 728
743 749 755 761 768 773 778 783 788 792 796 799 800 802 805 807 807 807 805 804 804 802 800 798 795 792 789 786 782 777 772 766 761 756 751 747 744 740 737 735 732 730 727
Wind_Speed
23 24 23 19 18 24 18 15 15 14 15 12 10 8 7 5 5 3 5 6 7 6 5 5 6 8 5 7 11 14 15 17 8 19 21 24 26 27 22 19 14 10 11
28 25 24 19 21 18 16 13 13 12 11 11 11 8 8 5 7 5 6 4 3 4 6 8 11 13 9 15 17 18 19 18 10 16 23 20 22 15 14 12 7 8 13
30 28 26 23 22 19 18 15 13 11 12 12 10 8 6 8 6 7 6 5 5 8 10 13 14 15 19 17 19 17 18 17 14 18 19 21 16 12 14 12 13 16 13
32 30 29 27 25 22 20 17 15 15 13 10 11 10 8 10 7 9 9 10 10 10 11 14 17 18 17 14 21 15 14 11 14 16 19 20 12 15 10 11 16 16 15
33 33 32 28 25 23 20 19 17 17 17 14 11 10 10 9 9 12 12 9 10 14 17 18 18 18 21 14 12 14 9 12 15 19 20 17 10 13 11 13 17 18 18
33 34 31 28 26 25 22 21 19 17 14 11 12 10 11 11 10 12 9 11 13 14 18 21 19 17 14 6 4 3 8 13 16 17 14 6 9 11 11 13 14 13 5
32 32 31 29 27 26 25 23 21 17 13 10 7 8 9 10 11 8 8 10 14 17 20 22 23 15 8 2 3 9 15 16 17 12 10 8 12 13 10 14 12 13 17
29 30 33 30 28 25 22 22 20 17 14 11 10 8 6 8 7 10 13 14 15 18 22 22 7 3 3 7 12 14 13 13 9 13 12 14 12 14 13 13 13 17 19
29 29 32 34 32 29 26 23 21 17 15 12 9 8 9 8 10 13 14 12 14 12 11 7 5 7 6 8 11 13 14 14 15 14 10 13 15 12 14 14 14 16 13
28 34 34 33 31 30 27 24 21 18 15 12 10 10 12 11 13 12 9 9 6 7 4 4 5 7 6 9 11 11 14 16 19 17 17 17 15 12 12 13 16 17 15
36 35 36 34 27 28 26 23 21 17 13 12 13 9 16 14 14 10 6 4 3 6 8 8 2 4 6 9 9 10 15 16 14 17 17 15 15 14 17 16 17 18 19
33 30 32 33 28 27 27 25 21 16 12 8 11 10 7 9 9 4 3 3 4 7 9 3 6 5 2 7 10 11 11 11 11 18 17 18 19 18 19 18 16 13 17
34 33 36 31 26 28 28 24 18 14 12 11 12 13 12 8 7 5 2 4 7 11 11 11 12 11 3 7 14 13 13 10 16 15 18 23 20 17 20 21 21 18 21
24 26 30 24 26 28 24 21 17 14 13 13 9 11 9 9 7 5 1 6 8 7 7 6 7 2 3 6 6 9 8 10 8 15 18 19 17 19 22 23 24 25 25
24 26 29 24 24 22 20 16 13 8 11 12 12 16 20 13 5 3 5 3 3 7 12 11 10 8 1 2 7 9 9 12 10 19 18 20 22 23 23 22 26 24 20
28 26 26 29 19 21 20 17 12 10 10 10 9 9 13 7 4 3 1 1 4 10 14 15 18 9 7 2 8 11 13 13 13 17 18 20 21 21 23 25 25 22 21
26 31 34 31 26 24 25 24 20 13 13 13 11 11 11 12 9 6 2 3 7 11 15 16 13 6 5 0 4 9 11 10 12 16 17 20 20 22 23 24 24 22 23
31 31 29 24 26 28 25 23 21 21 19 15 11 9 8 5 3 0 4 8 14 20 8 7 9 3 4 2 4 6 8 12 14 17 18 19 19 21 23 23 22 21 23
31 30 30 26 26 29 25 24 21 19 17 15 12 9 6 3 6 7 10 13 14 13 9 13 14 17 10 6 5 6 10 14 16 19 18 16 20 21 24 23 23 24 25
33 32 28 27 30 28 26 26 21 21 18 15 9 6 8 7 10 11 8 6 6 11 13 13 14 16 14 15 15 16 20 14 14 17 24 27 27 24 23 24 24 22 22
32 30 29 26 30 28 23 26 23 23 20 21 13 9 8 4 6 13 14 14 14 14 13 13 14 13 15 18 19 17 12 19 24 29 31 30 27 24 24 23 22 20 22
32 32 29 26 23 21 28 29 26 21 27 22 15 12 8 9 13 13 13 11 12 12 11 12 13 13 17 14 13 13 19 25 29 29 29 28 25 23 23 21 22 22 21
27 24 23 20 21 30 29 28 23 18 25 20 15 11 13 15 14 13 11 11 11 12 12 13 12 14 12 10 13 20 23 24 26 27 27 27 27 24 20 22 21 21 19
26 24 17 27 29 30 29 24 24 24 25 22 20 18 17 15 14 12 11 10 12 13 13 13 12 11 9 13 19 23 22 25 26 27 25 25 22 18 17 21 23 23 13
23 23 29 33 32 32 26 27 29 27 24 22 22 20 17 14 12 11 12 11 12 14 14 14 14 13 15 18 22 25 26 27 27 27 24 18 18 20 22 23 16 9 9
25 30 33 33 29 32 32 29 27 26 24 21 18 17 14 14 11 10 12 11 11 14 14 14 15 18 19 20 25 30 29 27 25 25 20 17 19 21 22 13 10 14 12
Wind_Direction
185 186 184 177 182 181 179 162 170 151 155 167 171 175 196 176 194 165 173 212 236 222 298 293 300 319 287 292 323 323 324 312 276 306 319 325 322 327 319 291 310 294 290
185 185 185 178 173 183 178 159 168 179 175 180 187 182 195 178 181 209 222 276 228 286 297 304 302 303 302 310 307 310 308 309 300 310 320 335 348 37 36 18 6 329 315
184 183 184 181 176 182 175 173 182 183 190 194 180 184 203 191 198 218 251 272 288 299 298 295 301 307 308 307 307 300 294 301 310 313 319 328 328 2 348 334 334 330 315
184 183 184 184 182 182 179 177 180 188 195 200 196 195 209 199 208 227 237 248 259 273 286 298 307 309 309 305 296 287 294 293 309 308 312 310 321 342 343 347 335 333 326
183 184 188 182 182 182 181 183 188 201 208 202 203 211 212 213 230 244 244 243 259 281 294 302 307 306 313 304 291 289 295 304 313 319 313 306 319 340 339 332 326 322 325
182 186 183 180 182 185 185 190 196 206 212 219 220 221 220 223 241 248 229 256 282 295 304 309 308 300 295 265 263 314 315 316 318 324 308 304 317 317 314 321 326 326 327
182 185 180 182 187 190 189 192 197 205 203 214 216 218 238 237 234 253 268 291 296 303 309 309 308 291 255 227 303 329 322 322 324 325 312 322 310 321 313 321 319 317 309
180 179 182 182 187 191 194 197 198 199 202 205 221 241 254 262 265 272 276 280 295 310 318 313 285 182 91 7 342 329 335 340 357 346 337 329 319 317 308 312 310 306 306
178 176 183 185 184 187 196 200 200 198 195 206 226 231 250 244 257 266 267 279 307 327 343 356 152 87 29 15 1 352 349 344 341 339 342 335 326 317 309 300 308 312 306
178 180 183 186 187 188 191 201 198 196 198 205 223 235 242 247 255 260 265 284 313 334 331 126 107 40 39 11 3 354 340 344 342 346 347 347 342 321 328 312 306 284 282
183 184 186 185 187 192 191 197 199 196 203 214 227 245 241 238 252 252 282 276 314 331 333 226 234 345 7 3 349 340 336 333 348 352 342 340 342 345 336 334 324 308 283
178 181 179 182 182 201 191 190 195 196 204 216 237 256 260 255 247 229 221 244 315 288 324 224 271 274 325 345 346 332 337 343 333 342 346 341 338 336 341 341 335 327 325
174 174 177 184 185 190 187 184 187 188 200 230 245 254 257 214 197 206 273 290 302 290 299 306 302 313 275 343 341 323 320 343 347 340 328 325 333 334 334 335 338 333 329
173 167 171 182 180 178 178 179 178 187 217 235 255 227 189 172 165 158 307 307 294 298 311 316 331 196 349 347 342 347 353 350 8 345 328 326 343 342 339 340 334 333 329
161 159 167 175 166 166 163 174 183 206 228 225 174 160 156 150 151 297 316 315 341 347 342 342 354 198 129 354 15 5 6 359 342 358 350 346 341 343 341 336 334 330 322
164 159 159 153 174 157 155 133 140 137 141 165 146 147 117 87 47 355 337 222 343 332 333 332 347 203 175 124 17 3 3 354 350 346 347 342 340 339 336 334 334 327 326
164 162 167 161 163 159 148 145 132 121 121 137 135 114 93 88 73 79 88 301 315 316 298 302 340 192 174 313 1 352 347 355 345 342 334 334 333 333 335 334 330 330 331
165 169 161 161 162 173 171 167 163 154 147 146 145 133 115 119 131 84 312 324 336 352 342 337 22 346 195 259 333 318 325 340 337 339 334 334 337 337 333 328 322 317 320
165 165 164 167 179 181 184 183 178 172 169 167 168 178 186 246 283 283 280 290 316 339 48 38 21 2 343 324 328 312 324 323 327 337 341 343 339 333 326 322 320 322 322
163 169 171 176 189 186 178 171 172 170 167 163 168 204 208 241 306 350 19 34 42 43 40 29 19 14 45 28 17 3 355 21 16 350 338 334 332 330 322 318 317 313 314
159 167 178 193 189 189 171 165 172 173 163 157 148 128 117 114 65 76 66 53 43 37 29 28 18 32 24 13 5 6 13 349 345 340 334 331 328 322 317 312 308 309 308
157 168 187 190 190 163 155 163 164 168 162 152 133 125 110 82 88 70 61 48 38 28 27 22 17 24 13 9 1 1 353 346 340 337 333 329 324 314 310 309 308 309 312
163 186 192 185 146 152 147 153 159 143 156 149 145 127 104 92 82 68 57 45 36 27 27 19 13 8 1 1 0 357 351 347 342 337 332 328 322 319 316 307 311 310 314
182 175 158 137 130 131 128 124 121 119 115 119 109 97 93 88 80 66 54 41 32 26 20 13 15 13 12 356 352 351 349 345 342 340 335 329 329 332 327 326 321 311 304
163 145 131 126 127 126 124 117 113 110 105 101 97 93 85 84 81 67 51 37 25 20 20 19 17 4 352 350 349 348 343 340 340 341 339 337 336 334 335 322 315 347 347
142 131 128 130 126 122 118 115 111 107 102 100 98 89 82 75 71 55 43 34 26 19 19 20 13 4 352 345 346 343 341 339 339 342 341 342 341 337 328 329 334 337 332